Date String (YYYY-MM-DD hh:mm:ss) UTC,Instrument flags,absolute air pressure of the measurement (hPa),sample flow rate (lpm),inlet stack bypass flow (lpm),air temperature of the measurement (°C),ambient temperature measured by the external sensor (°C),aerosol sample conditioner tube jacket temperature (°C),OPC LED temperature (°C),internal box temperature (°C),relative humidity of the measurement (%),span deviation,mass concentration of particles derived from Lorenz-Mie calculation of OPC scattering (μg/m³),mass concentration of particles derived from Lorenz-Mie calculation of OPC scattering (μg/m³),mass concentration of particles derived from Lorenz-Mie calculation of OPC scattering (μg/m³)
DateTimeUTC,F1_M11,P_M11,Q1_M11,Q2_M11,T1_M11,T2_M11,T3_M11,T4_M11,T5_M11,U1_M11,ZSPAN_M11,X2_M11,X0_M11,X1_M11
2023-07-15 01:00:00,SystemResetWarning,0833.2,5.01,000.00,028.9,025.1,000.0,037.1,030.3,33.9,-002.5,0007.98,0025.07,0006.41
2023-07-15 01:01:00,SystemResetWarning,0833.2,5.00,000.00,028.8,024.9,000.0,037.0,030.1,34.0,-002.4,0007.97,0025.46,0006.40
2023-07-15 01:02:00,SystemResetWarning,0833.2,5.01,000.00,028.8,025.2,000.0,037.1,030.1,33.9,-002.3,0007.90,0025.55,0006.40
2023-07-15 01:03:00,SystemResetWarning,0833.2,4.99,000.00,028.7,025.7,000.0,037.1,030.2,34.3,-002.0,0007.90,0024.58,0006.40
2023-07-15 01:04:00,SystemResetWarning,0833.2,5.00,000.00,028.8,026.2,000.0,037.2,030.3,34.3,-002.0,0007.87,0024.60,0006.40
2023-07-15 01:05:00,SystemResetWarning,0833.2,5.00,000.00,028.8,026.6,000.0,037.2,030.4,33.9,-001.9,0007.86,0024.04,0006.41
2023-07-15 01:06:00,SystemResetWarning,0833.4,5.00,000.00,028.8,027.0,000.0,037.2,030.5,33.8,-001.9,0007.87,0023.77,0006.40
2023-07-15 01:07:00,SystemResetWarning,0833.4,5.00,000.00,028.9,027.4,000.0,037.2,030.6,33.7,-002.1,0007.89,0023.86,0006.41
2023-07-15 01:08:00,SystemResetWarning,0833.4,5.00,000.00,029.0,027.7,000.0,037.3,030.7,33.6,-002.4,0007.86,0022.13,0006.39
2023-07-15 01:09:00,SystemResetWarning,0833.4,5.00,000.00,029.0,027.9,000.0,037.3,030.8,33.6,-002.2,0007.84,0021.61,0006.38
2023-07-15 01:10:00,SystemResetWarning,0833.5,4.98,000.00,029.1,027.5,000.0,037.3,030.8,33.7,-002.0,0007.88,0021.58,0006.37
2023-07-15 01:11:00,SystemResetWarning,0833.5,5.00,000.00,029.0,025.9,000.0,037.2,030.6,33.8,-001.6,0007.82,0022.07,0006.35
2023-07-15 01:12:00,SystemResetWarning,0833.5,5.00,000.00,028.9,024.9,000.0,037.1,030.3,33.8,-001.3,0007.81,0021.34,0006.32
2023-07-15 01:13:00,SystemResetWarning,0833.4,5.00,000.00,028.9,025.0,000.0,037.1,030.2,33.7,-001.1,0007.82,0020.84,0006.30
2023-07-15 01:14:00,SystemResetWarning,0833.5,5.01,000.00,028.8,025.3,000.0,037.1,030.2,33.7,-000.7,0007.78,0021.01,0006.24
2023-07-15 01:15:00,SystemResetWarning,0833.7,5.00,000.00,028.8,025.8,000.0,037.2,030.3,34.2,-001.0,0007.72,0019.87,0006.20
2023-07-15 01:16:00,SystemResetWarning,0833.7,4.99,000.00,028.8,026.3,000.0,037.2,030.4,33.8,-001.0,0007.70,0018.67,0006.15
2023-07-15 01:17:00,SystemResetWarning,0833.7,5.01,000.00,028.9,026.8,000.0,037.2,030.5,33.8,-000.3,0007.69,0019.48,0006.11
2023-07-15 01:18:00,SystemResetWarning,0833.8,5.01,000.00,028.9,027.1,000.0,037.2,030.6,33.5,-000.2,0007.61,0018.70,0006.07
2023-07-15 01:19:00,SystemResetWarning,0833.8,5.00,000.00,029.0,027.4,000.0,037.3,030.7,33.5,0000.2,0007.53,0018.62,0006.03
2023-07-15 01:20:00,SystemResetWarning,0833.8,5.00,000.00,029.0,027.7,000.0,037.3,030.8,33.4,-000.1,0007.49,0018.07,0005.99
2023-07-15 01:21:00,SystemResetWarning,0833.8,5.00,000.00,029.1,027.7,000.0,037.3,030.8,33.3,-000.0,0007.45,0019.68,0005.97
2023-07-15 01:22:00,SystemResetWarning,0833.8,4.99,000.00,029.0,026.3,000.0,037.2,030.5,32.9,-000.1,0007.43,0019.32,0005.95
2023-07-15 01:23:00,SystemResetWarning,0833.8,5.01,000.00,029.0,025.7,000.0,037.2,030.4,32.9,0000.2,0007.43,0019.18,0005.93
2023-07-15 01:24:00,SystemResetWarning,0833.7,5.01,000.00,028.9,025.8,000.0,037.2,030.3,32.3,0000.1,0007.41,0020.48,0005.91
2023-07-15 01:25:00,SystemResetWarning,0833.7,4.99,000.00,028.9,026.2,000.0,037.2,030.4,32.5,-000.3,0007.39,0020.67,0005.92
2023-07-15 01:26:00,SystemResetWarning,0833.7,4.99,000.00,028.9,026.6,000.0,037.3,030.5,32.3,0000.2,0007.36,0021.37,0005.91
2023-07-15 01:27:00,SystemResetWarning,0833.7,5.01,000.00,029.0,026.9,000.0,037.3,030.6,32.4,-000.1,0007.36,0022.00,0005.90
2023-07-15 01:28:00,SystemResetWarning,0833.7,5.00,000.00,029.0,027.3,000.0,037.3,030.7,32.4,-001.2,0007.37,0021.92,0005.89
2023-07-15 01:29:00,SystemResetWarning,0833.6,5.00,000.00,029.0,027.6,000.0,037.4,030.8,32.4,-001.4,0007.39,0023.46,0005.88
2023-07-15 01:30:00,SystemResetWarning,0833.6,4.98,000.00,029.1,027.6,000.0,037.4,030.8,32.4,-000.6,0007.39,0025.03,0005.86
2023-07-15 01:31:00,SystemResetWarning,0833.7,5.00,000.00,029.1,026.2,000.0,037.3,030.7,32.3,-000.4,0007.36,0025.25,0005.85
2023-07-15 01:32:00,SystemResetWarning,0833.7,5.01,000.00,029.0,025.0,000.0,037.2,030.4,32.5,-000.6,0007.31,0024.44,0005.83
2023-07-15 01:33:00,SystemResetWarning,0833.8,5.01,000.00,028.9,024.8,000.0,037.1,030.2,33.0,-000.2,0007.31,0024.42,0005.81
2023-07-15 01:34:00,SystemResetWarning,0833.8,4.99,000.00,028.8,025.2,000.0,037.2,030.1,33.4,-000.2,0007.25,0025.39,0005.78
2023-07-15 01:35:00,SystemResetWarning,0833.8,5.00,000.00,028.8,025.7,000.0,037.2,030.2,33.2,-000.2,0007.24,0024.11,0005.77
2023-07-15 01:36:00,SystemResetWarning,0833.9,5.01,000.00,028.8,026.1,000.0,037.2,030.3,33.2,0000.0,0007.26,0023.64,0005.75
2023-07-15 01:37:00,SystemResetWarning,0834.0,4.99,000.00,028.9,026.6,000.0,037.3,030.5,33.5,0000.0,0007.28,0023.55,0005.73
2023-07-15 01:38:00,SystemResetWarning,0834.0,5.00,000.00,028.9,027.0,000.0,037.3,030.6,33.1,0000.0,0007.27,0023.08,0005.71
2023-07-15 01:39:00,SystemResetWarning,0834.0,5.00,000.00,028.9,027.3,000.0,037.3,030.7,32.8,0000.0,0007.22,0022.45,0005.70
2023-07-15 01:40:00,SystemResetWarning,0834.0,5.00,000.00,029.0,027.6,000.0,037.3,030.7,32.6,-000.3,0007.21,0021.14,0005.70
2023-07-15 01:41:00,SystemResetWarning,0834.0,4.99,000.00,029.0,027.9,000.0,037.4,030.8,32.3,-001.3,0007.27,0019.92,0005.71
2023-07-15 01:42:00,SystemResetWarning,0834.0,4.99,000.00,029.1,027.5,000.0,037.3,030.8,32.3,-001.6,0007.32,0020.92,0005.71
2023-07-15 01:43:00,SystemResetWarning,0834.0,5.00,000.00,029.1,025.8,000.0,037.2,030.6,31.9,-001.6,0007.31,0020.55,0005.73
2023-07-15 01:44:00,SystemResetWarning,0834.0,5.01,000.00,029.0,024.9,000.0,037.1,030.4,31.9,-001.5,0007.34,0019.93,0005.72
2023-07-15 01:45:00,SystemResetWarning,0834.0,5.00,000.00,028.9,025.0,000.0,037.1,030.2,31.9,-001.2,0007.41,0018.93,0005.72
2023-07-15 01:46:00,SystemResetWarning,0834.1,5.01,000.00,028.8,025.4,000.0,037.2,030.1,32.2,-001.7,0007.43,0018.99,0005.72
2023-07-15 01:47:00,SystemResetWarning,0834.1,4.99,000.00,028.8,025.8,000.0,037.2,030.3,32.1,-002.2,0007.40,0020.40,0005.70
2023-07-15 01:48:00,SystemResetWarning,0834.1,5.00,000.00,028.8,026.3,000.0,037.2,030.4,32.0,-002.0,0007.38,0021.66,0005.69
2023-07-15 01:49:00,SystemResetWarning,0834.2,5.00,000.00,028.9,026.8,000.0,037.3,030.5,31.9,-001.7,0007.30,0021.56,0005.67
2023-07-15 01:50:00,SystemResetWarning,0834.2,5.00,000.00,028.9,027.1,000.0,037.3,030.6,32.3,-001.1,0007.30,0022.20,0005.64
2023-07-15 01:51:00,SystemResetWarning,0834.3,5.00,000.00,029.0,027.4,000.0,037.3,030.7,32.5,-000.9,0007.25,0021.85,0005.63
2023-07-15 01:52:00,SystemResetWarning,0834.3,5.00,000.00,029.0,027.7,000.0,037.3,030.8,32.6,-000.7,0007.13,0021.36,0005.60
2023-07-15 01:53:00,SystemResetWarning,0834.5,4.99,000.00,029.1,027.9,000.0,037.4,030.9,32.9,-000.4,0007.13,0021.02,0005.58
2023-07-15 01:54:00,SystemResetWarning,0834.5,4.99,000.00,029.1,027.1,000.0,037.3,030.8,32.5,-000.1,0007.12,0020.97,0005.56
2023-07-15 01:55:00,SystemResetWarning,0834.5,5.00,000.00,029.1,025.4,000.0,037.2,030.6,32.2,-000.0,0007.04,0021.06,0005.55
2023-07-15 01:56:00,SystemResetWarning,0834.4,5.00,000.00,029.0,024.8,000.0,037.1,030.3,32.2,-000.9,0007.00,0021.34,0005.54
2023-07-15 01:57:00,SystemResetWarning,0834.3,5.01,000.00,028.9,024.9,000.0,037.1,030.1,32.7,-000.5,0006.96,0021.33,0005.53
2023-07-15 01:58:00,SystemResetWarning,0834.2,5.00,000.00,028.8,025.4,000.0,037.2,030.2,32.8,0000.0,0006.96,0020.14,0005.51
2023-07-15 01:59:00,SystemResetWarning,0834.5,4.99,000.00,028.8,025.9,000.0,037.2,030.3,32.9,0000.0,0006.94,0018.38,0005.50
